#timestamp,LO_Frequency,Hit,StdDev 
1548090015.1,286047000.9,N
1548090016.0,286047000.9,N
1548090035.8,286046999.4,N
1548090055.6,286046996.7,N
1548090075.5,286046998.3,N
1548090095.3,286047000.8,N
1548090115.2,286046998.3,N
1548090135.9,286047000.6,N
1548090155.7,286046998.7,N
1548090175.6,286046998.8,N
1548090195.4,286047001.2,N
1548090245.3,286047000.3,E
1548090255.2,286047001.2,N
1548090275.0,286046998.8,P
1548090275.9,286046998.8,N
1548090295.8,286047000.8,N
1548090315.6,286047000.8,N
1548090335.5,286047000.4,N
1548090355.3,286046998.2,N
1548090375.1,286047000.7,N
1548090395.9,286047000.1,N
1548090415.7,286047000.5,N
1548090435.5,286047000.1,N
1548090455.4,286047000.7,N
1548090475.2,286047000.8,N
1548090495.1,286046996.7,Y
1548090496.0,286046996.7,P
1548090515.8,286046998.9,N
1548090535.6,286046999.4,N
1548090555.5,286046998.8,N
1548090575.3,286046999.3,N
1548090595.1,286046997.3,N
1548090615.9,286046997.3,N
1548090635.7,286046995.5,Y
1548090655.6,286046999.3,P
1548090675.4,286046998.2,P
1548090695.2,286047000.5,N
1548090715.1,286047000.8,N
1548090716.0,286047000.8,N
1548090735.8,286047000.4,N
1548090755.6,286047000.4,N
1548090775.5,286047002.7,N
1548090795.3,286047002.7,N
1548090815.2,286047002.3,N
1548090835.9,286047002.3,N
1548090855.7,286047002.4,N
1548090875.6,286046999.9,N
1548090895.4,286046999.7,N
1548090915.2,286047000.1,N
1548090935.1,286047000.9,N
1548090936.0,286047000.9,N
1548090955.8,286046999.1,N
1548090975.7,286046998.4,N
1548090995.5,286046998.2,N
1548091015.3,286047001.2,N
1548091035.2,286046998.7,N
1548091055.9,286046998.4,N
1548091075.7,286046998.7,N
1548091095.6,286047000.9,N
1548091115.4,286047000.3,N
1548091135.2,286047001.0,N
1548091155.1,286047000.9,N
1548091156.0,286047000.9,N
1548091175.8,286046998.8,N
1548091195.7,286046998.8,N
1548091215.5,286046998.5,N
1548091235.3,286046998.7,N
1548091255.2,286046999.2,N
1548091275.0,286046996.6,N
1548091275.9,286046996.6,N
1548091295.8,286046999.2,N
1548091315.6,286046999.5,N
1548091335.4,286046996.5,N
1548091355.3,286046996.6,N
1548091375.1,286046997.2,N
1548091395.8,286046996.7,N
1548091415.7,286046997.2,N
1548091435.5,286046998.9,N
1548091455.3,286047000.8,N
1548091475.2,286047000.9,N
1548091495.0,286047000.2,N
1548091495.9,286047000.2,N
1548091515.8,286047000.4,N
1548091535.6,286047000.4,N
1548091555.4,286047000.4,N
1548091575.3,286046998.1,N
1548091595.1,286046998.2,N
1548091615.8,286047000.2,N
1548091635.7,286047000.3,N
1548091655.5,286046998.6,N
1548091675.4,286046998.1,N
1548091695.2,286046998.4,N
1548091715.0,286047000.7,N
1548091715.9,286047000.7,N
1548091735.8,286047000.3,N
1548091755.6,286047000.3,N
1548091775.4,286047002.0,N
1548091795.3,286047003.8,N
1548091815.1,286047003.5,N
1548091835.9,286047003.7,N
1548091855.7,286047005.9,Y
1548091875.5,286047005.5,P
1548091895.4,286047003.6,N
1548091915.2,286047004.2,N
1548091935.0,286047001.3,N
1548091936.0,286047001.3,N
1548091955.8,286047001.5,N
1548091975.6,286046999.7,N
1548091995.5,286047000.2,N
1548092015.3,286047000.0,N
1548092035.1,286047000.0,N
1548092055.9,286047000.6,N
1548092075.7,286047000.3,N
1548092095.5,286047002.3,N
1548092115.4,286047002.2,N
1548092135.2,286047002.5,N
1548092155.1,286046999.7,N
1548092156.0,286046999.7,N
1548092175.8,286047000.4,N
1548092195.6,286047000.6,N
1548092215.5,286047000.8,N
1548092235.3,286046998.6,N
1548092255.1,286047000.5,N
1548092275.9,286046998.5,N
1548092295.7,286046998.2,N
1548092315.6,286046999.2,N
1548092335.4,286046998.6,N
1548092355.2,286046999.9,N
1548092375.1,286047000.2,N
1548092376.0,286047000.2,N
1548092395.8,286047000.2,N
1548092415.6,286047000.8,N
1548092435.5,286046998.6,N
1548092455.3,286046999.3,N
1548092475.2,286046999.6,N
1548092495.9,286046999.2,N
1548092515.7,286046996.9,N
1548092535.6,286046999.0,N
1548092555.4,286046996.6,N
1548092575.2,286046999.3,N
1548092595.1,286046997.0,N
1548092596.0,286046997.0,N
1548092615.8,286046996.8,N
1548092635.7,286046996.7,N
1548092655.5,286046997.7,N
1548092675.3,286046997.2,N
1548092695.2,286046997.8,N
1548092715.0,286046996.5,N
1548092715.9,286046996.5,N
1548092735.8,286046997.2,N
1548092755.6,286046999.6,N
1548092775.4,286046998.1,N
1548092795.3,286046996.7,N
1548092815.1,286046997.1,N
1548092816.0,286046997.1,N
1548092835.8,286046997.1,N
1548092855.7,286046996.6,N
1548092875.5,286046996.6,N
1548092895.4,286046997.4,N
1548092915.2,286046997.1,N
1548092935.0,286046995.3,Y
1548092935.9,286046995.3,P
1548092955.8,286046998.9,N
1548092975.6,286046998.3,N
1548092995.4,286046998.9,N
1548093015.3,286046998.1,N
1548093035.1,286046999.4,N
1548093055.9,286046998.5,N
1548093075.7,286047001.1,N
1548093095.5,286047000.8,N
1548093115.4,286047000.5,N
1548093135.2,286047000.5,N
1548093155.0,286047000.3,N
1548093155.9,286047000.3,N
1548093175.8,286046999.8,N
1548093195.6,286047002.2,N
1548093215.5,286047004.0,N
1548093235.3,286047004.3,N
1548093255.1,286047000.0,N
1548093275.9,286046999.9,N
1548093295.7,286047000.1,N
1548093315.6,286047002.2,N
1548093335.4,286047000.2,N
1548093355.2,286047001.0,N
1548093375.1,286046999.8,N
1548093376.0,286046999.8,N
1548093395.8,286047001.6,N
1548093415.6,286047000.3,N
1548093435.5,286047000.9,N
1548093455.3,286047000.9,N
1548093475.1,286047000.0,N
1548093495.9,286047000.1,N
1548093515.7,286047002.7,N
1548093535.6,286047000.3,N
1548093555.4,286047000.7,N
1548093575.2,286047000.5,N
1548093595.1,286047001.2,N
1548093596.0,286047001.2,N
